Previsão horária em Al Hilla

Hoje, 19 Junho, Sábado

Tempo Temperatura Precipitação Vento Pressão Humidade
00:00 +35°C° 0 mm 8 m/s 748 mmHg 18%
01:00 +35°C° 0 mm 8 m/s 748 mmHg 19%
02:00 +34°C° 0 mm 8 m/s 748 mmHg 20%
03:00 +34°C° 0 mm 7 m/s 748 mmHg 22%
04:00 +33°C° 0 mm 7 m/s 748 mmHg 23%
05:00 +33°C° 0 mm 7 m/s 748 mmHg 24%
06:00 +33°C° 0 mm 7 m/s 749 mmHg 25%
07:00 +34°C° 0 mm 8 m/s 749 mmHg 22%
08:00 +37°C° 0 mm 8 m/s 749 mmHg 20%
09:00 +39°C° 0 mm 8 m/s 750 mmHg 18%
10:00 +40°C° 0 mm 8 m/s 750 mmHg 15%
11:00 +43°C° 0 mm 8 m/s 749 mmHg 12%
12:00 +44°C° 0 mm 7 m/s 749 mmHg 10%
13:00 +45°C° 0 mm 7 m/s 749 mmHg 8%
14:00 +45°C° 0 mm 8 m/s 749 mmHg 7%
15:00 +46°C° 0 mm 8 m/s 748 mmHg 6%
16:00 +46°C° 0 mm 7 m/s 748 mmHg 6%
17:00 +45°C° 0 mm 7 m/s 748 mmHg 6%
18:00 +45°C° 0 mm 6 m/s 748 mmHg 7%
19:00 +42°C° 0 mm 5 m/s 749 mmHg 8%
20:00 +40°C° 0 mm 4 m/s 749 mmHg 9%
21:00 +37°C° 0 mm 4 m/s 749 mmHg 10%
22:00 +36°C° 0 mm 4 m/s 749 mmHg 11%
23:00 +36°C° 0 mm 4 m/s 749 mmHg 12%

Amanhã, 20 Junho, Domingo

Tempo Temperatura Precipitação Vento Pressão Humidade
00:00 +35°C° 0 mm 4 m/s 749 mmHg 13%
01:00 +34°C° 0 mm 4 m/s 749 mmHg 14%
02:00 +34°C° 0 mm 4 m/s 749 mmHg 16%
03:00 +33°C° 0 mm 4 m/s 750 mmHg 17%
04:00 +33°C° 0 mm 4 m/s 750 mmHg 19%
05:00 +33°C° 0 mm 5 m/s 750 mmHg 21%
06:00 +32°C° 0 mm 5 m/s 750 mmHg 22%
07:00 +35°C° 0 mm 6 m/s 751 mmHg 20%
08:00 +38°C° 0 mm 7 m/s 751 mmHg 19%
09:00 +40°C° 0 mm 8 m/s 751 mmHg 17%
10:00 +43°C° 0 mm 8 m/s 751 mmHg 14%
11:00 +44°C° 0 mm 8 m/s 751 mmHg 11%
12:00 +46°C° 0 mm 8 m/s 751 mmHg 8%
13:00 +46°C° 0 mm 8 m/s 751 mmHg 7%
14:00 +46°C° 0 mm 8 m/s 750 mmHg 7%
15:00 +48°C° 0 mm 8 m/s 750 mmHg 6%
16:00 +46°C° 0 mm 7 m/s 750 mmHg 6%
17:00 +46°C° 0 mm 7 m/s 749 mmHg 7%
18:00 +45°C° 0 mm 7 m/s 749 mmHg 7%
19:00 +42°C° 0 mm 6 m/s 750 mmHg 8%
20:00 +41°C° 0 mm 5 m/s 750 mmHg 9%
21:00 +38°C° 0 mm 4 m/s 750 mmHg 10%
22:00 +37°C° 0 mm 4 m/s 750 mmHg 11%
23:00 +36°C° 0 mm 4 m/s 750 mmHg 11%

Depois de amanhã, 21 Junho, Segunda-feira

Tempo Temperatura Precipitação Vento Pressão Humidade
00:00 +36°C° 0 mm 5 m/s 750 mmHg 11%
01:00 +35°C° 0 mm 5 m/s 749 mmHg 12%
02:00 +35°C° 0 mm 5 m/s 749 mmHg 13%
03:00 +34°C° 0 mm 5 m/s 749 mmHg 13%
04:00 +34°C° 0 mm 4 m/s 749 mmHg 13%
05:00 +34°C° 0 mm 4 m/s 750 mmHg 13%
06:00 +33°C° 0 mm 4 m/s 750 mmHg 12%
07:00 +36°C° 0 mm 4 m/s 750 mmHg 11%
08:00 +40°C° 0 mm 5 m/s 750 mmHg 9%
09:00 +42°C° 0 mm 6 m/s 751 mmHg 7%
10:00 +45°C° 0 mm 6 m/s 750 mmHg 7%
11:00 +47°C° 0 mm 6 m/s 750 mmHg 6%
12:00 +48°C° 0 mm 6 m/s 750 mmHg 5%
13:00 +49°C° 0 mm 6 m/s 749 mmHg 5%
14:00 +51°C° 0 mm 6 m/s 749 mmHg 5%
15:00 +51°C° 0 mm 6 m/s 749 mmHg 5%
16:00 +51°C° 0 mm 6 m/s 748 mmHg 5%
17:00 +49°C° 0 mm 5 m/s 748 mmHg 5%
18:00 +49°C° 0 mm 5 m/s 748 mmHg 5%
19:00 +47°C° 0 mm 5 m/s 748 mmHg 7%
20:00 +43°C° 0 mm 5 m/s 748 mmHg 8%
21:00 +41°C° 0 mm 5 m/s 749 mmHg 10%
22:00 +41°C° 0 mm 5 m/s 748 mmHg 10%
23:00 +40°C° 0 mm 4 m/s 748 mmHg 10%

22 Junho, Terça-feira

Tempo Temperatura Precipitação Vento Pressão Humidade
00:00 +38°C° 0 mm 4 m/s 748 mmHg 9%
01:00 +38°C° 0 mm 4 m/s 748 mmHg 10%
02:00 +37°C° 0 mm 4 m/s 748 mmHg 11%
03:00 +36°C° 0 mm 4 m/s 748 mmHg 11%
04:00 +36°C° 0 mm 3 m/s 748 mmHg 12%
05:00 +36°C° 0 mm 3 m/s 749 mmHg 12%
06:00 +36°C° 0 mm 3 m/s 749 mmHg 12%
07:00 +38°C° 0 mm 4 m/s 749 mmHg 10%
08:00 +42°C° 0 mm 4 m/s 750 mmHg 9%
09:00 +46°C° 0 mm 5 m/s 750 mmHg 7%
10:00 +47°C° 0 mm 5 m/s 750 mmHg 7%
11:00 +49°C° 0 mm 4 m/s 749 mmHg 6%
12:00 +51°C° 0 mm 4 m/s 749 mmHg 5%
13:00 +52°C° 0 mm 5 m/s 749 mmHg 5%
14:00 +52°C° 0 mm 5 m/s 748 mmHg 5%
15:00 +53°C° 0 mm 6 m/s 748 mmHg 5%
16:00 +52°C° 0 mm 6 m/s 748 mmHg 5%
17:00 +51°C° 0 mm 6 m/s 748 mmHg 5%
18:00 +49°C° 0 mm 6 m/s 748 mmHg 5%
19:00 +47°C° 0 mm 5 m/s 748 mmHg 6%
20:00 +45°C° 0 mm 5 m/s 749 mmHg 7%
21:00 +42°C° 0 mm 5 m/s 749 mmHg 8%
22:00 +42°C° 0 mm 5 m/s 749 mmHg 9%
23:00 +41°C° 0 mm 6 m/s 749 mmHg 11%

23 Junho, Quarta-feira

Tempo Temperatura Precipitação Vento Pressão Humidade
00:00 +40°C° 0 mm 7 m/s 749 mmHg 12%
01:00 +39°C° 0 mm 6 m/s 749 mmHg 13%
02:00 +39°C° 0 mm 6 m/s 750 mmHg 14%
03:00 +38°C° 0 mm 6 m/s 750 mmHg 15%
04:00 +38°C° 0 mm 6 m/s 750 mmHg 15%
05:00 +36°C° 0 mm 6 m/s 750 mmHg 15%
06:00 +36°C° 0 mm 5 m/s 750 mmHg 15%
07:00 +40°C° 0 mm 6 m/s 751 mmHg 13%
08:00 +44°C° 0 mm 7 m/s 751 mmHg 10%
09:00 +48°C° 0 mm 8 m/s 751 mmHg 8%
10:00 +49°C° 0 mm 7 m/s 751 mmHg 7%
11:00 +51°C° 0 mm 7 m/s 751 mmHg 6%
12:00 +52°C° 0 mm 7 m/s 750 mmHg 5%
13:00 +53°C° 0 mm 7 m/s 750 mmHg 5%
14:00 +53°C° 0 mm 7 m/s 749 mmHg 5%
15:00 +53°C° 0 mm 7 m/s 749 mmHg 4%
16:00 +53°C° 0 mm 7 m/s 749 mmHg 5%
17:00 +52°C° 0 mm 7 m/s 749 mmHg 5%
18:00 +51°C° 0 mm 7 m/s 749 mmHg 5%
19:00 +49°C° 0 mm 7 m/s 749 mmHg 6%
20:00 +46°C° 0 mm 6 m/s 750 mmHg 7%
21:00 +44°C° 0 mm 6 m/s 750 mmHg 8%
22:00 +42°C° 0 mm 5 m/s 750 mmHg 9%
23:00 +41°C° 0 mm 5 m/s 750 mmHg 11%

24 Junho, Quinta-feira

Tempo Temperatura Precipitação Vento Pressão Humidade
00:00 +40°C° 0 mm 5 m/s 750 mmHg 12%
01:00 +39°C° 0 mm 5 m/s 750 mmHg 12%
02:00 +39°C° 0 mm 5 m/s 750 mmHg 13%
03:00 +38°C° 0 mm 6 m/s 750 mmHg 13%
04:00 +37°C° 0 mm 5 m/s 750 mmHg 14%
05:00 +37°C° 0 mm 5 m/s 750 mmHg 14%
06:00 +37°C° 0 mm 5 m/s 750 mmHg 15%
07:00 +41°C° 0 mm 6 m/s 750 mmHg 12%
08:00 +44°C° 0 mm 7 m/s 751 mmHg 10%
09:00 +47°C° 0 mm 7 m/s 751 mmHg 8%
10:00 +50°C° 0 mm 7 m/s 750 mmHg 7%
11:00 +51°C° 0 mm 7 m/s 750 mmHg 7%
12:00 +53°C° 0 mm 7 m/s 750 mmHg 6%
13:00 +53°C° 0 mm 7 m/s 750 mmHg 6%
14:00 +53°C° 0 mm 7 m/s 749 mmHg 5%
15:00 +55°C° 0 mm 8 m/s 749 mmHg 5%
16:00 +53°C° 0 mm 7 m/s 748 mmHg 5%
17:00 +52°C° 0 mm 7 m/s 748 mmHg 6%
18:00 +52°C° 0 mm 7 m/s 748 mmHg 6%
19:00 +49°C° 0 mm 6 m/s 748 mmHg 7%
20:00 +46°C° 0 mm 6 m/s 749 mmHg 8%
21:00 +43°C° 0 mm 5 m/s 749 mmHg 9%
22:00 +42°C° 0 mm 5 m/s 749 mmHg 10%
23:00 +41°C° 0 mm 5 m/s 749 mmHg 10%
Mostrar mais